Find Starlink 32330

NORAD ID: 61850 Int'l Des: 2024-202 Owner: SPXS Country: US Constellation: starlink operational
LEOCIRCULAR

Live Position

Loading 3D Globe...

About Starlink 32330

Description loading...

Upcoming Passes

Passes for default location (London). Set your location on the main map for personalized predictions.

Altitude History

Loading altitude history...

Two-Line Element Set

1 61850U 24202F 26126.43789874 -.00001187 00000-0 -33622-4 0 9996
2 61850 43.0004 271.4992 0001068 270.4168 89.6562 15.27567515 84170
Epoch: May 6, 2026 • Age: 5 hours

Current Status

Altitude 482.8 km
Velocity 7.63 km/s
Sub-Earth Point 20.24°N, 35.48°W
Launch Date Nov 7, 2024
Age 1.4 years
Type internet

Technical Details

Classification Payload
Mass 730.00 kg
Dry Mass 700.00 kg
Total Mass 730.00 kg
Length 0.30 m
Diameter 4.10 m
Span 29.00 m
Shape Box + pan
Manufacturer SPXS
Bus Type Starlink V2M
Phase Status In Orbit
Owner/State SPXS/US

Most Searched